Location: R�serve Fauniques des Laurentides
(47.3100°N, 71.1900°W)
Time: 12:06:04
(UTC-05:00)

Amateur Radio Satellites - All Passes

Search period start: 27 November 2014 11:36
Search period end: 28 November 2014 11:36
Location: R�serve Fauniques des Laurentides, 47.3100°N, 71.1900°W

Satellite Date Start Highest point End Downlink Frequencies (MHz)
Time Altitude Azimuth
UWE-3 27 Nov 11:41:42 11:43:34 13° 301° (WNW) 11:45:27 435.000/436.395/437.385
ITAMSAT 1 27 Nov 11:42:45 11:46:30 20° 59° (ENE) 11:50:15 435.822/435.867
HUMSAT D 27 Nov 11:44:43 11:47:40 19° 297° (WNW) 11:50:38 437.325/437.525
CUBEBUG 2 27 Nov 11:45:23 11:46:19 11° 302° (WNW) 11:47:15 437.445
HO-68 27 Nov 11:45:45 11:48:41 13° 318° (NW) 11:51:37 435.675
CUSAT 1 27 Nov 11:51:18 11:53:07 17° 92° (E) 11:54:58 437.405
AUBIESAT-1 27 Nov 12:11:53 12:15:03 17° 94° (E) 12:18:10 437.475
ITUPSAT 1 27 Nov 12:12:02 12:15:07 17° 90° (E) 12:18:11 437.325
M-CUBED/EXP-1 PRIME 27 Nov 12:17:47 12:21:30 21° 96° (E) 12:25:09 437.505
YUBILEINY 27 Nov 12:19:36 12:28:00 48° 71° (ENE) 12:36:17 435.215
TISAT 1 27 Nov 12:19:48 12:24:00 71° 286° (WNW) 12:28:11 437.305
VELOX 1 27 Nov 12:20:35 12:21:50 11° 304° (NW) 12:23:04 145.980
SWISSCUBE 27 Nov 12:21:53 12:25:39 23° 93° (E) 12:29:23 437.505
ESTCUBE 1 27 Nov 12:22:40 12:26:11 22° 297° (WNW) 12:29:41 437.505/2401.250
Gurwin Techsat 1B 27 Nov 12:22:51 12:27:11 26° 62° (ENE) 12:31:32 435.225
DANDE 27 Nov 12:23:03 12:25:34 39° 98° (E) 12:28:04 436.750
Oscar 19 27 Nov 12:23:52 12:28:59 86° 255° (WSW) 12:34:09 437.125/150
AO-7 27 Nov 12:32:17 12:37:34 19° 41° (NE) 12:42:52 29.400- 29.500
SPROUT 27 Nov 12:34:21 12:38:33 56° 288° (WNW) 12:42:44 437.525
BEESAT 27 Nov 12:52:08 12:56:39 39° 98° (E) 13:01:07 436.000
CUBEBUG 1 27 Nov 12:54:39 12:56:18 12° 303° (WNW) 12:57:57 437.445
HORYU 2 27 Nov 13:14:01 13:17:49 29° 65° (ENE) 13:21:40 437.375
SO-50 27 Nov 13:17:19 13:19:07 12° 253° (WSW) 13:20:55 436.795
ITAMSAT 1 27 Nov 13:20:18 13:25:30 68° 257° (WSW) 13:30:43 435.822/435.867
CUSAT 1 27 Nov 13:35:03 13:36:16 12° 293° (WNW) 13:37:31 437.405
PHONESAT 2.4 27 Nov 13:35:21 13:36:41 12° 153° (SSE) 13:38:01 2401.200-2431.200
RS-15 27 Nov 13:36:06 13:42:13 17° 96° (E) 13:48:17 29.354- 29.394
VERMONT LUNAR 27 Nov 13:39:11 13:41:16 15° 158° (SSE) 13:43:21 437.305
MaSat-1 27 Nov 13:39:32 13:40:35 12° 109° (ESE) 13:41:37 437.345
AUBIESAT-1 27 Nov 13:45:35 13:50:30 72° 292° (WNW) 13:55:19 437.475
STARS 27 Nov 13:47:16 13:50:40 21° 93° (E) 13:54:03 437.465
ITUPSAT 1 27 Nov 13:48:41 13:53:29 65° 288° (WNW) 13:58:13 437.325
M-CUBED/EXP-1 PRIME 27 Nov 13:51:59 13:56:52 59° 294° (WNW) 14:01:38 437.505
JAS-2 27 Nov 13:58:36 14:03:30 18° 49° (NE) 14:08:23 435.910
SWISSCUBE 27 Nov 13:59:09 14:03:46 48° 291° (WNW) 14:08:21 437.505
Gurwin Techsat 1B 27 Nov 14:01:42 14:06:52 51° 260° (W) 14:12:04 435.225
Oscar 19 27 Nov 14:07:09 14:09:07 12° 274° (W) 14:11:04 437.125/150
YUBILEINY 27 Nov 14:16:41 14:24:44 44° 273° (W) 14:32:44 435.215
AO-7 27 Nov 14:20:41 14:28:49 64° 64° (ENE) 14:37:01 29.400- 29.500
O/OREOS (USA 219) 27 Nov 14:21:51 14:26:11 46° 59° (ENE) 14:30:30 437.305
BEESAT 27 Nov 14:30:16 14:34:21 28° 296° (WNW) 14:38:25 436.000
KKS-1 27 Nov 14:30:33 14:35:02 83° 104° (ESE) 14:39:28 437.445
HORYU 2 27 Nov 14:50:26 14:54:26 33° 263° (W) 14:58:29 437.375
PHONESAT 2.4 27 Nov 15:11:38 15:14:44 25° 170° (S) 15:17:50 2401.200-2431.200
MaSat-1 27 Nov 15:12:15 15:14:51 33° 303° (WNW) 15:17:16 437.345
VERMONT LUNAR 27 Nov 15:15:59 15:19:05 27° 174° (S) 15:22:11 437.305
CUTE-I 27 Nov 15:16:50 15:19:03 13° 52° (NE) 15:21:16 437.470
AUBIESAT-1 27 Nov 15:22:20 15:24:39 14° 311° (NW) 15:26:58 437.475
STARS 27 Nov 15:23:11 15:27:21 43° 291° (WNW) 15:31:30 437.465
M-CUBED/EXP-1 PRIME 27 Nov 15:29:23 15:30:56 11° 313° (NW) 15:32:29 437.505
ITUPSAT 1 27 Nov 15:29:42 15:30:27 10° 307° (NW) 15:31:11 437.325
JAS-2 27 Nov 15:39:31 15:47:10 66° 70° (ENE) 15:54:55 435.910
RS-15 27 Nov 15:41:31 15:52:18 69° 119° (ESE) 16:03:09 29.354- 29.394
MOZHAYETS 4 27 Nov 15:47:21 15:50:41 19° 91° (E) 15:53:59
O/OREOS (USA 219) 27 Nov 16:01:54 16:05:16 21° 258° (WSW) 16:08:38 437.305
KKS-1 27 Nov 16:08:54 16:11:03 14° 302° (WNW) 16:13:13 437.445
Cubesat XI-IV 27 Nov 16:12:38 16:17:24 34° 64° (ENE) 16:22:11 437.490
AO-7 27 Nov 16:14:47 16:22:05 34° 265° (W) 16:29:29 29.400- 29.500
GONETS M04 27 Nov 16:15:22 16:19:14 13° 47° (NE) 16:23:05
PHONESAT 2.4 27 Nov 16:49:48 16:52:59 27° 187° (S) 16:56:10 2401.200-2431.200
CUTE-I 27 Nov 16:52:51 16:58:10 69° 72° (ENE) 17:03:31 437.470
VERMONT LUNAR 27 Nov 16:54:04 16:57:01 24° 191° (SSW) 16:59:59 437.305
HO-68 27 Nov 16:59:27 17:00:44 11° 38° (NE) 17:02:00 435.675
MOZHAYETS 4 27 Nov 17:23:41 17:28:14 54° 289° (WNW) 17:32:46
JAS-2 27 Nov 17:25:53 17:32:37 32° 269° (W) 17:39:29 435.910
CUBESAT XI-V 27 Nov 17:33:41 17:36:53 18° 90° (E) 17:40:04 437.345
Cubesat XI-IV 27 Nov 17:52:26 17:57:25 39° 263° (W) 18:02:27 437.490
RS-15 27 Nov 17:54:53 18:05:20 48° 326° (NNW) 18:15:57 29.354- 29.394
PRISM 27 Nov 17:58:02 18:02:18 71° 103° (ESE) 18:06:30 437.425
GONETS M04 27 Nov 18:10:00 18:18:38 53° 73° (ENE) 18:27:09
CUTE 1.7 + AOD 2 27 Nov 18:20:44 18:22:23 12° 58° (ENE) 18:24:02 437.475
PCSat 27 Nov 18:24:18 18:29:02 32° 111° (ESE) 18:33:49 145.827
PHONESAT 2.4 27 Nov 18:29:02 18:31:06 14° 204° (SSW) 18:33:09 2401.200-2431.200
VERMONT LUNAR 27 Nov 18:34:07 18:34:43 10° 208° (SSW) 18:35:20 437.305
CUTE-I 27 Nov 18:35:06 18:38:46 19° 270° (W) 18:42:26 437.470
HO-68 27 Nov 18:39:58 18:46:34 41° 61° (ENE) 18:53:10 435.675
BEESAT 3 27 Nov 18:41:14 18:44:15 20° 113° (ESE) 18:47:17 437.485
STRAND 1 27 Nov 18:45:17 18:50:25 74° 103° (ESE) 18:55:30 437.568
SEEDS 27 Nov 18:49:48 18:52:51 20° 63° (ENE) 18:55:55 437.485
BEESAT 2 27 Nov 18:57:40 19:01:06 26° 115° (ESE) 19:04:35 435.950
GOMX 1 27 Nov 19:00:40 19:04:14 23° 65° (ENE) 19:07:40 467.674
AAUSAT CUBESAT 2 27 Nov 19:02:54 19:05:58 20° 64° (ENE) 19:09:04 437.432
Oscar 11 27 Nov 19:03:37 19:05:26 13° 58° (ENE) 19:07:15 145.826/435.025
CUBESAT XI-V 27 Nov 19:10:07 19:14:43 57° 288° (WNW) 19:19:14 437.345
AIST 1 27 Nov 19:10:58 19:15:23 80° 98° (E) 19:19:49
COMPASS 1 27 Nov 19:18:44 19:22:26 32° 68° (ENE) 19:26:10 437.405
CANX-2 27 Nov 19:19:15 19:23:17 46° 71° (ENE) 19:27:21 2200.000
DX 1 27 Nov 19:29:26 19:32:43 21° 62° (ENE) 19:36:00 434.975-435.025
UWE-3 27 Nov 19:30:41 19:32:12 12° 59° (ENE) 19:33:43 435.000/436.395/437.385
CUBEBUG 2 27 Nov 19:33:29 19:35:45 14° 60° (ENE) 19:38:00 437.445
PRISM 27 Nov 19:35:00 19:37:19 15° 301° (WNW) 19:39:38 437.425
BRITE-PL 27 Nov 19:37:12 19:42:03 67° 74° (ENE) 19:46:32 437.365/2234.400
AIST 2 27 Nov 19:39:49 19:43:40 34° 118° (ESE) 19:47:35 435.215
DOVE 4 27 Nov 19:47:07 19:51:25 46° 71° (ENE) 19:55:31 437.250
CUTE 1.7 + AOD 2 27 Nov 19:53:27 19:57:40 85° 257° (WSW) 20:01:57 437.475
ZACube-1 27 Nov 19:59:53 20:02:53 19° 63° (ENE) 20:05:52 437.345
PCSat 27 Nov 20:07:04 20:12:17 47° 311° (NW) 20:17:33 145.827
GONETS M04 27 Nov 20:07:15 20:15:13 40° 275° (W) 20:23:08
VELOX 1 27 Nov 20:07:48 20:10:48 18° 61° (ENE) 20:13:47 145.980
CINEMA 3 27 Nov 20:09:22 20:13:31 47° 71° (ENE) 20:17:33 145.822/145.860
RS-15 27 Nov 20:11:37 20:21:05 32° 360° (N) 20:30:47 29.354- 29.394
BEESAT 3 27 Nov 20:18:05 20:22:07 53° 312° (NW) 20:26:15 437.485
SEEDS 27 Nov 20:24:22 20:28:24 46° 261° (W) 20:32:29 437.485
STRAND 1 27 Nov 20:25:38 20:29:03 18° 302° (WNW) 20:32:26 437.568
UKube-1 27 Nov 20:26:44 20:31:04 71° 73° (ENE) 20:35:26 .
HO-68 27 Nov 20:27:17 20:34:10 48° 260° (W) 20:41:07 435.675
DELFI C3 27 Nov 20:32:51 20:36:54 75° 75° (ENE) 20:41:01 145.870
FUNcube-1 27 Nov 20:33:18 20:37:12 39° 70° (ENE) 20:41:06 145.935
AISAT 27 Nov 20:34:07 20:38:02 31° 66° (ENE) 20:41:57 437.250
BEESAT 2 27 Nov 20:35:16 20:39:13 42° 315° (NW) 20:43:14 435.950
Oscar 11 27 Nov 20:36:39 20:40:58 85° 256° (WSW) 20:45:19 145.826/435.025
AAUSAT CUBESAT 2 27 Nov 20:37:25 20:41:23 43° 262° (W) 20:45:25 437.432
GOMX 1 27 Nov 20:37:43 20:42:11 44° 261° (W) 20:46:25 467.674
50 SAT 27 Nov 20:40:21 20:43:39 25° 66° (ENE) 20:46:58 437.505
CUBEBUG 1 27 Nov 20:41:34 20:44:06 15° 59° (ENE) 20:46:37 437.445
AIST 1 27 Nov 20:51:48 20:53:41 12° 297° (WNW) 20:55:34
COMPASS 1 27 Nov 20:54:40 20:58:12 26° 266° (W) 21:01:46 437.405
CANX-2 27 Nov 20:56:30 20:59:29 19° 269° (W) 21:02:30 2200.000
HUMSAT D 27 Nov 21:03:37 21:07:37 51° 72° (ENE) 21:11:38 437.325/437.525
UWE-3 27 Nov 21:03:57 21:08:10 84° 257° (WSW) 21:12:21 435.000/436.395/437.385
DX 1 27 Nov 21:04:27 21:08:40 47° 260° (W) 21:12:56 434.975-435.025
CUBEBUG 2 27 Nov 21:07:47 21:12:00 67° 258° (WSW) 21:16:10 437.445
BRITE-PL 27 Nov 21:18:05 21:20:56 16° 269° (W) 21:23:42 437.365/2234.400
AIST 2 27 Nov 21:18:23 21:22:18 34° 317° (NW) 21:26:17 435.215
DOVE 4 27 Nov 21:26:07 21:29:25 20° 267° (W) 21:32:37 437.250
POLYITAN 1 27 Nov 21:27:50 21:29:06 11° 88° (E) 21:30:22 437.675
QB50P2 27 Nov 21:28:54 21:30:21 12° 88° (E) 21:31:49 145.880/145.840
ANTELSAT 27 Nov 21:30:25 21:33:35 19° 92° (E) 21:36:48 437.575/2403.000
DUCHIFAT 1 27 Nov 21:33:18 21:35:09 13° 89° (E) 21:37:00 145.980
ZACube-1 27 Nov 21:34:57 21:38:59 46° 261° (W) 21:43:00 437.345
TISAT 1 27 Nov 21:41:40 21:44:17 16° 61° (ENE) 21:46:53 437.305
VELOX 1 27 Nov 21:42:33 21:46:58 60° 259° (WSW) 21:51:24 145.980
ESTCUBE 1 27 Nov 21:47:56 21:52:26 63° 72° (ENE) 21:56:58 437.505/2401.250
CINEMA 3 27 Nov 21:48:00 21:50:59 18° 268° (W) 21:53:56 145.822/145.860
NANOSAT C BR1 27 Nov 21:52:01 21:55:09 20° 92° (E) 21:58:17 145.865
PCSat 27 Nov 21:54:07 21:57:05 15° 334° (NNW) 22:00:04 145.827
ISS 27 Nov 21:55:59 21:58:08 17° 137° (SE) 22:00:18 145.825
SPROUT 27 Nov 21:57:00 22:00:07 20° 63° (ENE) 22:03:14 437.525
BEESAT 3 27 Nov 21:59:15 22:01:18 13° 333° (NNW) 22:03:22 437.485
QB50P1 27 Nov 22:01:55 22:05:26 25° 94° (E) 22:08:56 145.935-145.965
BUGSAT 1 27 Nov 22:02:37 22:05:42 20° 93° (E) 22:08:45 437.445
UKube-1 27 Nov 22:05:41 22:07:44 13° 271° (W) 22:09:48 .
FUNcube-1 27 Nov 22:10:34 22:13:45 21° 267° (W) 22:16:55 145.935
AISAT 27 Nov 22:10:38 22:14:38 31° 264° (W) 22:18:39 437.250
DELFI C3 27 Nov 22:11:37 22:12:45 11° 272° (W) 22:13:54 145.870
50 SAT 27 Nov 22:15:15 22:18:52 32° 264° (W) 22:22:30 437.505
CUBEBUG 1 27 Nov 22:15:30 22:19:56 73° 257° (WSW) 22:24:23 437.445
BEESAT 2 27 Nov 22:17:04 22:18:37 12° 336° (NNW) 22:20:09 435.950
TIGRISAT 27 Nov 22:22:27 22:26:49 58° 101° (E) 22:31:17 435.000
CUSAT 1 27 Nov 22:23:22 22:27:39 36° 75° (ENE) 22:33:12 437.405
RS-15 27 Nov 22:26:19 22:36:55 47° 33° (NNE) 22:47:54 29.354- 29.394
POPSAT HIP 1 27 Nov 22:26:38 22:30:42 44° 99° (E) 22:34:44 437.405
BEESAT 27 Nov 22:28:56 22:29:33 10° 53° (NE) 22:30:09 436.000
UNISAT 6 27 Nov 22:37:12 22:41:40 83° 104° (ESE) 22:46:13 437.425
HUMSAT D 27 Nov 22:41:11 22:43:46 16° 269° (W) 22:46:20 437.325/437.525
DANDE 27 Nov 22:57:52 23:02:15 60° 78° (ENE) 23:08:12 436.750
AIST 2 27 Nov 23:01:07 23:02:13 11° 340° (NNW) 23:03:19 435.215
POLYITAN 1 27 Nov 23:01:22 23:05:37 78° 285° (WNW) 23:09:51 437.675
QB50P2 27 Nov 23:02:35 23:06:49 76° 286° (WNW) 23:11:03 145.880/145.840
AUBIESAT-1 27 Nov 23:03:44 23:07:33 32° 60° (ENE) 23:11:38 437.475
ANTELSAT 27 Nov 23:06:21 23:10:41 51° 289° (WNW) 23:15:05 437.575/2403.000
DUCHIFAT 1 27 Nov 23:07:19 23:11:31 69° 286° (WNW) 23:15:42 145.980
M-CUBED/EXP-1 PRIME 27 Nov 23:10:13 23:14:10 39° 62° (ENE) 23:18:28 437.505
MaSat-1 27 Nov 23:12:49 23:15:04 49° 59° (ENE) 23:17:22 437.345
TISAT 1 27 Nov 23:15:27 23:19:40 62° 259° (WSW) 23:23:55 437.305
ITUPSAT 1 27 Nov 23:21:46 23:25:52 29° 64° (ENE) 23:29:59 437.325
ESTCUBE 1 27 Nov 23:26:59 23:29:45 16° 270° (W) 23:32:32 437.505/2401.250
NANOSAT C BR1 27 Nov 23:27:15 23:31:15 43° 290° (WNW) 23:35:14 145.865
ISS 27 Nov 23:31:06 23:34:23 87° 154° (SSE) 23:37:42 145.825
SWISSCUBE 27 Nov 23:31:31 23:35:55 37° 67° (ENE) 23:40:21 437.505
SPROUT 27 Nov 23:31:43 23:35:54 49° 261° (W) 23:40:06 437.525
BUGSAT 1 27 Nov 23:37:34 23:41:23 39° 291° (WNW) 23:45:09 437.445
QB50P1 27 Nov 23:37:35 23:41:25 34° 292° (WNW) 23:45:13 145.935-145.965
KKS-1 27 Nov 23:57:47 00:00:16 15° 59° (ENE) 00:02:45 437.445
TIGRISAT 28 Nov 00:00:13 00:03:12 18° 298° (WNW) 00:06:13 435.000
BEESAT 28 Nov 00:01:43 00:06:28 65° 72° (ENE) 00:11:14 436.000
POPSAT HIP 1 28 Nov 00:03:13 00:06:21 21° 297° (WNW) 00:09:28 437.405
CUSAT 1 28 Nov 00:06:32 00:10:45 32° 265° (W) 00:16:08 437.405
UNISAT 6 28 Nov 00:15:43 00:17:53 14° 301° (WNW) 00:20:04 437.425
Oscar 19 28 Nov 00:32:40 00:37:01 27° 94° (E) 00:41:20 437.125/150
AUBIESAT-1 28 Nov 00:38:45 00:42:31 32° 260° (W) 00:46:35 437.475
RS-15 28 Nov 00:39:02 00:50:09 73° 239° (WSW) 01:01:45 29.354- 29.394
POLYITAN 1 28 Nov 00:40:36 00:40:50 10° 304° (NW) 00:41:04 437.675
DANDE 28 Nov 00:42:24 00:45:39 19° 268° (W) 00:49:32 436.750
M-CUBED/EXP-1 PRIME 28 Nov 00:45:53 00:49:22 25° 262° (W) 00:53:08 437.505
STARS 28 Nov 00:47:36 00:51:23 29° 66° (ENE) 00:55:11 437.465
ITUPSAT 1 28 Nov 00:59:06 01:03:37 39° 262° (W) 01:08:10 437.325
ISS 28 Nov 01:08:09 01:11:16 38° 354° (N) 01:14:23 145.825
SWISSCUBE 28 Nov 01:09:39 01:13:51 29° 265° (W) 01:18:04 437.505
BEESAT 3 28 Nov 01:20:33 01:21:44 11° 22° (NNE) 01:22:56 437.485
YUBILEINY 28 Nov 01:24:23 01:32:41 49° 88° (E) 01:40:58 435.215
PCSat 28 Nov 01:25:47 01:29:03 16° 28° (NNE) 01:32:18 145.827
ITAMSAT 1 28 Nov 01:30:12 01:34:55 34° 96° (E) 01:39:35 435.822/435.867
KKS-1 28 Nov 01:31:55 01:36:22 74° 257° (WSW) 01:40:50 437.445
BEESAT 2 28 Nov 01:37:19 01:39:12 13° 25° (NNE) 01:41:04 435.950
BEESAT 28 Nov 01:41:41 01:44:46 17° 270° (W) 01:47:52 436.000
SO-50 28 Nov 01:54:06 01:56:51 16° 110° (ESE) 01:59:38 436.795
Oscar 19 28 Nov 02:11:38 02:16:33 46° 292° (WNW) 02:21:28 437.125/150
Gurwin Techsat 1B 28 Nov 02:14:30 02:19:41 50° 100° (E) 02:24:50 435.225
AO-7 28 Nov 02:20:39 02:25:09 15° 85° (E) 02:29:38 29.400- 29.500
AIST 2 28 Nov 02:20:55 02:23:30 15° 29° (NNE) 02:26:03 435.215
STARS 28 Nov 02:23:51 02:27:49 32° 263° (W) 02:31:48 437.465
HORYU 2 28 Nov 02:38:28 02:42:39 37° 98° (E) 02:46:49 437.375
ISS 28 Nov 02:45:07 02:48:19 48° 14° (NNE) 02:51:32 145.825
MOZHAYETS 4 28 Nov 02:52:29 02:56:18 26° 65° (ENE) 03:00:08
RS-15 28 Nov 02:53:23 03:00:32 20° 262° (W) 03:07:54 29.354- 29.394
BEESAT 3 28 Nov 02:57:11 03:01:08 38° 44° (NE) 03:05:03 437.485
PCSat 28 Nov 03:08:23 03:13:44 54° 51° (NE) 03:19:02 145.827
ITAMSAT 1 28 Nov 03:09:42 03:14:25 36° 295° (WNW) 03:19:06 435.822/435.867
BEESAT 2 28 Nov 03:14:24 03:18:30 48° 47° (NE) 03:22:34 435.950
PRISM 28 Nov 03:20:21 03:21:13 11° 56° (NE) 03:22:06 437.425
YUBILEINY 28 Nov 03:21:20 03:29:36 44° 290° (WNW) 03:37:55 435.215
SO-50 28 Nov 03:32:14 03:36:47 76° 309° (NW) 03:41:30 436.795
Gurwin Techsat 1B 28 Nov 03:55:01 03:59:23 27° 298° (WNW) 04:03:44 435.225
AIST 2 28 Nov 03:58:40 04:02:59 64° 50° (NE) 04:07:13 435.215
AO-7 28 Nov 04:11:05 04:19:28 70° 106° (ESE) 04:27:48 29.400- 29.500
HORYU 2 28 Nov 04:15:25 04:19:12 27° 295° (WNW) 04:22:58 437.375
ISS 28 Nov 04:21:49 04:24:59 46° 213° (SSW) 04:28:10 145.825
STRAND 1 28 Nov 04:26:48 04:30:46 23° 61° (ENE) 04:34:44 437.568
MOZHAYETS 4 28 Nov 04:29:02 04:33:21 40° 263° (W) 04:37:44
JAS-2 28 Nov 04:31:58 04:38:42 44° 95° (E) 04:44:38 435.910
BEESAT 3 28 Nov 04:35:37 04:39:17 30° 243° (WSW) 04:42:54 437.485
O/OREOS (USA 219) 28 Nov 04:37:43 04:41:34 29° 105° (ESE) 04:45:24 437.305
CUBESAT XI-V 28 Nov 04:40:07 04:44:02 26° 65° (ENE) 04:47:58 437.345
PRISM 28 Nov 04:51:49 04:56:02 81° 74° (ENE) 05:00:18 437.425
PCSat 28 Nov 04:52:18 04:56:51 28° 250° (WSW) 05:01:22 145.827
BEESAT 2 28 Nov 04:53:13 04:56:32 23° 246° (WSW) 04:59:50 435.950
CUTE-I 28 Nov 05:07:37 05:11:37 21° 91° (E) 05:15:35 437.470
SO-50 28 Nov 05:14:51 05:18:09 19° 331° (NNW) 05:21:30 436.795
AIST 1 28 Nov 05:15:30 05:19:18 28° 71° (ENE) 05:23:03
GONETS M04 28 Nov 05:27:06 05:28:33 11° 67° (ENE) 05:30:01
YUBILEINY 28 Nov 05:27:59 05:29:25 10° 317° (NW) 05:30:50 435.215
AIST 2 28 Nov 05:38:19 05:41:10 17° 248° (WSW) 05:43:59 435.215
AO-7 28 Nov 06:04:30 06:11:42 34° 307° (NW) 06:18:54 29.400- 29.500
STRAND 1 28 Nov 06:04:31 06:09:35 57° 259° (W) 06:14:40 437.568
Cubesat XI-IV 28 Nov 06:06:00 06:11:20 66° 102° (ESE) 06:16:36 437.490
O/OREOS (USA 219) 28 Nov 06:16:44 06:20:52 35° 304° (WNW) 06:25:00 437.305
CUBESAT XI-V 28 Nov 06:16:50 06:21:18 41° 263° (W) 06:25:47 437.345
JAS-2 28 Nov 06:17:05 06:23:41 41° 298° (WNW) 06:29:35 435.910
PRISM 28 Nov 06:31:01 06:32:10 11° 272° (W) 06:33:19 437.425
CUTE-I 28 Nov 06:46:51 06:52:05 60° 290° (WNW) 06:57:17 437.470
AIST 1 28 Nov 06:53:07 06:56:58 30° 270° (W) 07:00:46
GONETS M04 28 Nov 07:14:43 07:23:10 54° 90° (E) 07:31:40
CUTE 1.7 + AOD 2 28 Nov 07:37:23 07:39:38 14° 89° (E) 07:41:52 437.475
BRITE-PL 28 Nov 07:40:13 07:42:20 14° 89° (E) 07:44:27 437.365/2234.400
Cubesat XI-IV 28 Nov 07:47:02 07:50:57 21° 301° (WNW) 07:54:51 437.490
HO-68 28 Nov 07:51:29 07:57:38 30° 94° (E) 08:03:43 435.675
AO-7 28 Nov 08:00:32 08:01:57 11° 331° (NNW) 08:03:22 29.400- 29.500
UNISAT 6 28 Nov 08:05:40 08:07:46 14° 59° (ENE) 08:09:53 437.425
JAS-2 28 Nov 08:06:15 08:06:41 10° 320° (NW) 08:07:07 435.910
SEEDS 28 Nov 08:06:21 08:09:50 24° 93° (E) 08:13:18 437.485
AAUSAT CUBESAT 2 28 Nov 08:18:15 08:21:42 24° 94° (E) 08:25:09 437.432
Oscar 11 28 Nov 08:22:26 08:24:49 14° 89° (E) 08:27:12 145.826/435.025
POLYITAN 1 28 Nov 08:24:13 08:26:36 15° 60° (ENE) 08:28:58 437.675
QB50P2 28 Nov 08:25:10 08:27:36 15° 60° (ENE) 08:30:02 145.880/145.840
DUCHIFAT 1 28 Nov 08:29:20 08:31:58 16° 61° (ENE) 08:34:35 145.980
CUTE-I 28 Nov 08:29:51 08:31:06 11° 309° (NW) 08:32:21 437.470
ANTELSAT 28 Nov 08:33:09 08:36:34 24° 64° (ENE) 08:40:01 437.575/2403.000
COMPASS 1 28 Nov 08:34:55 08:38:55 39° 98° (E) 08:42:55 437.405
GOMX 1 28 Nov 08:36:05 08:39:58 37° 98° (E) 08:43:56 467.674
CANX-2 28 Nov 08:37:22 08:41:38 61° 101° (E) 08:45:54 2200.000
SO-50 28 Nov 08:40:51 08:43:20 14° 21° (NNE) 08:45:51 436.795
NANOSAT C BR1 28 Nov 08:48:13 08:51:38 24° 65° (ENE) 08:55:03 145.865
DX 1 28 Nov 08:50:15 08:53:44 23° 94° (E) 08:57:11 434.975-435.025
UWE-3 28 Nov 08:51:59 08:54:32 15° 90° (E) 08:57:05 435.000/436.395/437.385
BUGSAT 1 28 Nov 08:56:05 08:59:30 24° 65° (ENE) 09:02:55 437.445
CUBEBUG 2 28 Nov 08:56:28 08:59:35 19° 92° (E) 09:02:44 437.445
QB50P1 28 Nov 08:58:08 09:01:50 30° 67° (ENE) 09:05:32 145.935-145.965
CUTE 1.7 + AOD 2 28 Nov 09:11:44 09:16:00 65° 286° (WNW) 09:20:16 437.475
GONETS M04 28 Nov 09:12:08 09:20:17 40° 292° (WNW) 09:28:31
BRITE-PL 28 Nov 09:17:13 09:21:18 59° 287° (WNW) 09:25:26 437.365/2234.400
DOVE 4 28 Nov 09:20:22 09:24:34 82° 104° (ESE) 09:28:53 437.250
ZACube-1 28 Nov 09:20:45 09:24:18 25° 94° (E) 09:27:54 437.345
POPSAT HIP 1 28 Nov 09:22:46 09:26:54 52° 71° (ENE) 09:31:02 437.405
TIGRISAT 28 Nov 09:24:40 09:28:54 75° 74° (ENE) 09:33:11 435.000
VELOX 1 28 Nov 09:31:04 09:34:25 21° 93° (E) 09:37:44 145.980
CINEMA 3 28 Nov 09:37:52 09:42:06 78° 103° (ESE) 09:46:28 145.822/145.860
HO-68 28 Nov 09:38:43 09:45:47 63° 293° (WNW) 09:52:49 435.675
UNISAT 6 28 Nov 09:39:45 09:44:01 75° 257° (WSW) 09:48:19 437.425
ESTCUBE 1 28 Nov 09:40:33 09:41:32 11° 86° (E) 09:42:31 437.505/2401.250
SEEDS 28 Nov 09:41:50 09:45:47 37° 291° (WNW) 09:49:43 437.485
DELFI C3 28 Nov 09:45:52 09:50:02 87° 104° (ESE) 09:54:11 145.870
UKube-1 28 Nov 09:47:39 09:52:02 85° 105° (ESE) 09:56:22 .
50 SAT 28 Nov 09:52:55 09:56:25 27° 95° (E) 09:59:56 437.505
AAUSAT CUBESAT 2 28 Nov 09:53:36 09:57:30 36° 291° (WNW) 10:01:23 437.432
FUNcube-1 28 Nov 09:54:41 09:58:52 56° 100° (E) 10:03:06 145.935
Oscar 11 28 Nov 09:57:06 10:01:26 64° 287° (WNW) 10:05:44 145.826/435.025
POLYITAN 1 28 Nov 09:57:49 10:02:04 68° 258° (WSW) 10:06:18 437.675
AISAT 28 Nov 09:58:21 10:02:31 38° 98° (E) 10:06:38 437.250
QB50P2 28 Nov 09:58:49 10:03:03 66° 258° (WSW) 10:07:17 145.880/145.840
CUBEBUG 1 28 Nov 10:02:44 10:05:35 17° 91° (E) 10:08:24 437.445
DUCHIFAT 1 28 Nov 10:03:12 10:07:24 61° 259° (WSW) 10:11:37 145.980
ANTELSAT 28 Nov 10:09:15 10:13:13 37° 263° (W) 10:17:13 437.575/2403.000
COMPASS 1 28 Nov 10:11:06 10:14:28 23° 295° (WNW) 10:17:49 437.405
CANX-2 28 Nov 10:14:27 10:17:09 17° 299° (WNW) 10:19:51 2200.000
GOMX 1 28 Nov 10:14:42 10:17:59 23° 295° (WNW) 10:21:18 467.674
SO-50 28 Nov 10:20:34 10:25:10 41° 43° (NE) 10:29:48 436.795
HUMSAT D 28 Nov 10:20:44 10:24:54 66° 102° (ESE) 10:29:06 437.325/437.525
NANOSAT C BR1 28 Nov 10:23:24 10:27:22 37° 262° (W) 10:31:20 145.865
DX 1 28 Nov 10:26:04 10:30:08 39° 292° (WNW) 10:34:10 434.975-435.025
UWE-3 28 Nov 10:27:16 10:31:27 58° 287° (WNW) 10:35:42 435.000/436.395/437.385
BUGSAT 1 28 Nov 10:30:54 10:34:51 37° 262° (W) 10:38:47 437.445
CUBEBUG 2 28 Nov 10:32:28 10:36:31 45° 289° (WNW) 10:40:40 437.445
QB50P1 28 Nov 10:33:58 10:37:42 29° 264° (W) 10:41:27 145.935-145.965
ZACube-1 28 Nov 10:56:55 11:00:45 34° 291° (WNW) 11:04:39 437.345
TISAT 1 28 Nov 10:58:34 11:01:19 17° 91° (E) 11:04:03 437.305
DOVE 4 28 Nov 11:00:12 11:01:48 12° 301° (WNW) 11:03:23 437.250
POPSAT HIP 1 28 Nov 11:00:20 11:03:07 17° 269° (W) 11:05:55 437.405
TIGRISAT 28 Nov 11:04:46 11:06:14 12° 272° (W) 11:07:42 435.000
VELOX 1 28 Nov 11:07:00 11:11:14 45° 290° (WNW) 11:15:26 145.980
ESTCUBE 1 28 Nov 11:14:31 11:19:06 90° 101° (ESE) 11:23:38 437.505/2401.250
ITAMSAT 1 28 Nov 11:15:40 11:17:47 13° 53° (NE) 11:19:53 435.822/435.867
SPROUT 28 Nov 11:15:56 11:19:22 23° 93° (E) 11:22:46 437.525
CINEMA 3 28 Nov 11:16:53 11:18:48 13° 300° (WNW) 11:20:44 145.822/145.860
DELFI C3 28 Nov 11:23:18 11:24:42 12° 302° (WNW) 11:26:05 145.870
UKube-1 28 Nov 11:25:38 11:27:34 13° 303° (WNW) 11:29:30 .
50 SAT 28 Nov 11:28:11 11:31:43 29° 293° (WNW) 11:35:17 437.505
